Change the Weather History Date:

Monday, December 10, 2012

  Actual Average Record
Temperature  
Mean Temperature 14 °F -  
Max Temperature 26 °F 36 °F 53 °F (2010)
Min Temperature 3 °F 21 °F -7 °F (2011)
Degree Days  
Heating Degree Days 50    
Moisture  
Dew Point 2 °F    
Average Humidity 56    
Maximum Humidity 78    
Minimum Humidity 34    
Precipitation  
Precipitation 0.00 in - - ()
Sea Level Pressure  
Sea Level Pressure 29.97 in    
Wind  
Wind Speed 10 mph (WSW)    
Max Wind Speed 15 mph    
Max Gust Speed 25 mph    
Visibility 10 miles    
Events      
Averages and records for this station are not official NWS values.
T = Trace of Precipitation, MM = Missing Value Source: NWS Daily Summary

Daily Weather History Graph

Daily Weather History Graph

Search for Another Location

Airport or City:

Trip Planner

Search our weather history database for the weather conditions in past years. The results will help you decide how hot, cold, wet, or windy it might be!

Date:

Astronomy

Dec. 10, 2012 Rise Set
Actual Time 7:39 AM CST 4:50 PM CST
Civil Twilight 7:07 AM CST 5:21 PM CST
Nautical Twilight 6:32 AM CST 5:56 PM CST
Astronomical Twilight 5:58 AM CST 6:30 PM CST
Moon 4:21 AM CST (12/10) 2:41 PM CST (12/10)
Length of Visible Light 10h 14m
Length of Day
9h 11m
Waning Crescent, 10% of the Moon is Illuminated
Dec 10
Waning Crescent
Dec 13
New
Dec 19
First Quarter
Dec 28
Full
Jan 4
Last Quarter

Hourly Weather History & Observations

Time (CST) Temp. Windchill Dew Point Humidity Pressure Visibility Wind Dir Wind Speed Gust Speed Precip Events Conditions
12:15 AM 12.2 °F -3.7 °F 5.0 °F 73% 30.04 in 10.0 mi NW 15.0 mph 25.3 mph N/A   Overcast
12:55 AM 12.2 °F -2.5 °F 3.2 °F 67% 30.04 in 10.0 mi NW 12.7 mph 21.9 mph N/A   Overcast
1:15 AM 12.2 °F -2.5 °F 3.2 °F 67% 30.03 in 10.0 mi NW 12.7 mph 19.6 mph N/A   Overcast
1:55 AM 12.2 °F -3.1 °F 3.2 °F 67% 30.04 in 10.0 mi NW 13.8 mph 24.2 mph N/A   Overcast
2:15 AM 12.2 °F -3.7 °F 3.2 °F 67% 30.04 in 10.0 mi NW 15.0 mph 23.0 mph N/A   Overcast
2:35 AM 12.2 °F -3.7 °F 3.2 °F 67% 30.05 in 10.0 mi WNW 15.0 mph 23.0 mph N/A   Overcast
2:55 AM 10.4 °F -5.4 °F 1.4 °F 67% 30.05 in 10.0 mi NW 13.8 mph - N/A   Overcast
3:15 AM 10.4 °F -3.3 °F 1.4 °F 67% 30.05 in 10.0 mi NW 10.4 mph - N/A   Overcast
3:35 AM 10.4 °F -4.8 °F 1.4 °F 67% 30.04 in 10.0 mi NW 12.7 mph - N/A   Overcast
3:55 AM 10.4 °F -3.3 °F 1.4 °F 67% 30.04 in 10.0 mi NW 10.4 mph - N/A   Overcast
4:15 AM 10.4 °F -4.8 °F 1.4 °F 67% 30.04 in 10.0 mi NW 12.7 mph 19.6 mph N/A   Overcast
4:55 AM 6.8 °F -7.8 °F -2.2 °F 67% 30.03 in 10.0 mi NW 10.4 mph - N/A   Mostly Cloudy
5:35 AM 5.0 °F -10.0 °F -2.2 °F 72% 30.03 in 10.0 mi WNW 10.4 mph - N/A   Partly Cloudy
5:55 AM 5.0 °F -10.8 °F -2.2 °F 72% 30.02 in 10.0 mi NW 11.5 mph 17.3 mph N/A   Clear
6:15 AM 5.0 °F -10.0 °F -2.2 °F 72% 30.03 in 10.0 mi NW 10.4 mph 16.1 mph N/A   Clear
6:55 AM 5.0 °F -10.8 °F -2.2 °F 72% 30.04 in 10.0 mi WNW 11.5 mph - N/A   Clear
7:15 AM 3.2 °F -13.1 °F -2.2 °F 78% 30.04 in 10.0 mi NW 11.5 mph - N/A   Clear
7:35 AM 3.2 °F -11.3 °F -2.2 °F 78% 30.04 in 10.0 mi NW 9.2 mph 15.0 mph N/A   Clear
7:55 AM 3.2 °F -10.3 °F -4.0 °F 72% 30.03 in 10.0 mi NW 8.1 mph - N/A   Clear
8:15 AM 3.2 °F -9.1 °F -2.2 °F 78% 30.03 in 10.0 mi WNW 6.9 mph - N/A   Clear
8:35 AM 5.0 °F -5.6 °F -2.2 °F 72% 30.03 in 10.0 mi WNW 5.8 mph - N/A   Clear
8:55 AM 5.0 °F -9.1 °F -2.2 °F 72% 30.04 in 10.0 mi WNW 9.2 mph - N/A   Clear
9:15 AM 6.8 °F -5.9 °F -2.2 °F 67% 30.04 in 10.0 mi WNW 8.1 mph - N/A   Clear
9:35 AM 8.6 °F -2.6 °F -0.4 °F 67% 30.04 in 10.0 mi Variable 6.9 mph - N/A   Clear
9:55 AM 8.6 °F -2.6 °F -0.4 °F 67% 30.04 in 10.0 mi WNW 6.9 mph - N/A   Clear
10:15 AM 10.4 °F -0.4 °F -0.4 °F 62% 30.04 in 10.0 mi Variable 6.9 mph - N/A   Clear
10:35 AM 12.2 °F 1.7 °F -0.4 °F 57% 30.04 in 10.0 mi Variable 6.9 mph - N/A   Clear
10:55 AM 14.0 °F 2.9 °F 1.4 °F 57% 30.04 in 10.0 mi WNW 8.1 mph - N/A   Clear
11:15 AM 15.8 °F 5.1 °F 1.4 °F 53% 30.03 in 10.0 mi West 8.1 mph - N/A   Clear
11:35 AM 17.6 °F 7.3 °F 3.2 °F 53% 30.02 in 10.0 mi West 8.1 mph - N/A   Clear
11:55 AM 19.4 °F 10.4 °F 3.2 °F 49% 30.00 in 10.0 mi Variable 6.9 mph 12.7 mph N/A   Clear
12:15 PM 19.4 °F 8.6 °F 1.4 °F 46% 29.99 in 10.0 mi SW 9.2 mph - N/A   Clear
12:35 PM 21.2 °F 10.9 °F 3.2 °F 46% 29.98 in 10.0 mi WSW 9.2 mph - N/A   Clear
12:55 PM 23.0 °F 11.7 °F 3.2 °F 43% 29.98 in 10.0 mi West 11.5 mph - N/A   Clear
1:15 PM 23.0 °F 12.4 °F 3.2 °F 43% 29.97 in 10.0 mi WSW 10.4 mph - N/A   Clear
1:35 PM 23.0 °F 13.9 °F 1.4 °F 39% 29.95 in 10.0 mi SW 8.1 mph - N/A   Clear
1:55 PM 24.8 °F 16.9 °F 1.4 °F 36% 29.94 in 10.0 mi WSW 6.9 mph - N/A   Clear
2:15 PM 24.8 °F 16.9 °F 1.4 °F 36% 29.93 in 10.0 mi WSW 6.9 mph 12.7 mph N/A   Clear
2:35 PM 24.8 °F 19.1 °F 1.4 °F 36% 29.92 in 10.0 mi Variable 4.6 mph 11.5 mph N/A   Clear
2:55 PM 24.8 °F 19.1 °F -0.4 °F 34% 29.91 in 10.0 mi SW 4.6 mph 11.5 mph N/A   Clear
3:15 PM 26.6 °F 19.1 °F 1.4 °F 34% 29.90 in 10.0 mi South 6.9 mph - N/A   Clear
3:35 PM 26.6 °F 18.2 °F 1.4 °F 34% 29.90 in 9.0 mi SSW 8.1 mph - N/A   Clear
3:55 PM 24.8 °F 16.1 °F -0.4 °F 34% 29.89 in 10.0 mi South 8.1 mph - N/A   Clear
4:15 PM 24.8 °F 16.1 °F 1.4 °F 36% 29.89 in 10.0 mi South 8.1 mph - N/A   Clear
4:35 PM 24.8 °F 16.9 °F 1.4 °F 36% 29.89 in 10.0 mi South 6.9 mph - N/A   Clear
4:55 PM 23.0 °F 15.8 °F 1.4 °F 39% 29.89 in 10.0 mi South 5.8 mph - N/A   Clear
5:15 PM 23.0 °F 18.4 °F 1.4 °F 39% 29.90 in 10.0 mi South 3.5 mph - N/A   Clear
5:35 PM 19.4 °F 11.5 °F 1.4 °F 46% 29.91 in 10.0 mi SSW 5.8 mph - N/A   Clear
5:55 PM 17.6 °F 10.7 °F 1.4 °F 49% 29.92 in 10.0 mi South 4.6 mph - N/A   Clear
6:15 PM 15.8 °F 7.2 °F 1.4 °F 53% 29.92 in 10.0 mi South 5.8 mph - N/A   Clear
6:35 PM 15.8 °F 6.1 °F 1.4 °F 53% 29.92 in 10.0 mi SSE 6.9 mph - N/A   Clear
6:55 PM 15.8 °F 6.1 °F 3.2 °F 58% 29.91 in 10.0 mi SSE 6.9 mph - N/A   Clear
7:15 PM 15.8 °F 4.2 °F 3.2 °F 58% 29.90 in 10.0 mi SSE 9.2 mph - N/A   Clear
7:35 PM 17.6 °F 6.4 °F 3.2 °F 53% 29.90 in 10.0 mi South 9.2 mph - N/A   Clear
7:55 PM 19.4 °F 7.9 °F 5.0 °F 54% 29.89 in 10.0 mi South 10.4 mph - N/A   Clear
8:15 PM 19.4 °F 7.9 °F 5.0 °F 54% 29.89 in 10.0 mi South 10.4 mph - N/A   Clear
8:35 PM 19.4 °F 7.2 °F 5.0 °F 54% 29.89 in 10.0 mi South 11.5 mph - N/A   Partly Cloudy
8:55 PM 19.4 °F 8.6 °F 5.0 °F 54% 29.89 in 10.0 mi SSW 9.2 mph - N/A   Scattered Clouds
9:15 PM 19.4 °F 8.6 °F 5.0 °F 54% 29.89 in 10.0 mi South 9.2 mph - N/A   Overcast
9:35 PM 19.4 °F 9.5 °F 5.0 °F 54% 29.89 in 10.0 mi SSW 8.1 mph - N/A   Overcast
9:55 PM 19.4 °F 9.5 °F 5.0 °F 54% 29.89 in 10.0 mi SSW 8.1 mph 15.0 mph N/A   Overcast
10:15 PM 17.6 °F 5.7 °F 5.0 °F 58% 29.89 in 10.0 mi SSW 10.4 mph - N/A   Scattered Clouds
10:35 PM 19.4 °F 8.6 °F 5.0 °F 54% 29.88 in 10.0 mi SSW 9.2 mph - N/A   Mostly Cloudy
10:55 PM 19.4 °F 11.5 °F 5.0 °F 54% 29.88 in 10.0 mi SSW 5.8 mph - N/A   Overcast
11:15 PM 21.2 °F 10.9 °F 6.8 °F 54% 29.88 in 10.0 mi SSW 9.2 mph - N/A   Overcast
11:35 PM 23.0 °F 13.9 °F 5.0 °F 46% 29.88 in 10.0 mi SW 8.1 mph - N/A   Overcast
11:55 PM 23.0 °F 13.1 °F 5.0 °F 46% 29.87 in 10.0 mi SW 9.2 mph - N/A   Overcast